H1 CPF 2 NER 2023 9 19 9 262 01 glonass143 H2 2007501 9143 46805 2023 9 19 0 0 0 2023 9 22 23 45 0 900 1 1 0 0 0 1 H9 10 0 60206 0.00000 0 -16125253.727 -4377314.625 -19266805.078 10 0 60206 900.00000 0 -17746211.926 -5954695.981 -17323858.611 10 0 60206 1800.00000 0 -19286020.910 -7234111.498 -15044304.919 10 0 60206 2700.00000 0 -20681955.607 -8210990.848 -12472494.372 10 0 60206 3600.00000 0 -21873716.246 -8893441.964 -9658437.264 10 0 60206 4500.00000 0 -22805965.800 -9301639.182 -6656828.257 10 0 60206 5400.00000 0 -23430677.394 -9466707.540 -3525980.791 10 0 60206 6300.00000 0 -23709193.177 -9429151.847 -326692.429 10 0 60206 7200.00000 0 -23613908.286 -9236898.195 2878936.498 10 0 60206 8100.00000 0 -23129509.331 -8943031.739 6028707.752 10 0 60206 9000.00000 0 -22253715.601 -8603327.135 9061530.010 10 0 60206 9900.00000 0 -20997492.056 -8273676.524 11918600.215 10 0 60206 10800.00000 0 -19384725.277 -8007523.937 14544538.685 10 0 60206 11700.00000 0 -17451375.909 -7853414.487 16888456.398 10 0 60206 12600.00000 0 -15244142.827 -7852761.583 18904934.272 10 0 60206 13500.00000 0 -12818694.366 -8037926.085 20554896.245 10 0 60206 14400.00000 0 -10237539.676 -8430688.125 21806360.071 10 0 60206 15300.00000 0 -7567627.898 -9041175.866 22635052.098 10 0 60206 16200.00000 0 -4877773.890 -9867296.448 23024874.838 10 0 60206 17100.00000 0 -2236016.150 -10894693.553 22968218.816 10 0 60206 18000.00000 0 292984.661 -12097234.245 22466112.824 10 0 60206 18900.00000 0 2650399.909 -13438005.806 21528209.611 10 0 60206 19800.00000 0 4785439.225 -14870782.173 20172606.786 10 0 60206 20700.00000 0 6657218.096 -16341899.934 18425505.657 10 0 60206 21600.00000 0 8236209.968 -17792466.651 16320713.625 10 0 60206 22500.00000 0 9505223.008 -19160810.105 13898998.682 10 0 60206 23400.00000 0 10459861.167 -20385066.517 11207307.413 10 0 60206 24300.00000 0 11108450.606 -21405799.528 8297860.760 10 0 60206 25200.00000 0 11471434.857 -22168539.861 5227144.345 10 0 60206 26100.00000 0 11580264.420 -22626138.373 2054812.597 10 0 60206 27000.00000 0 11475827.924 -22740832.621 -1157472.042 10 0 60206 27900.00000 0 11206491.556 -22485938.804 -4347241.998 10 0 60206 28800.00000 0 10825830.226 -21847096.475 -7452445.475 10 0 60206 29700.00000 0 10390147.257 -20823012.313 -10412660.842 10 0 60206 30600.00000 0 9955888.482 -19425670.322 -13170279.977 10 0 60206 31500.00000 0 9577061.249 -17679998.577 -15671636.587 10 0 60206 32400.00000 0 9302768.573 -15623005.630 -17868056.795 10 0 60206 33300.00000 0 9174963.764 -13302422.186 -19716810.973 10 0 60206 34200.00000 0 9226521.268 -10774904.610 -21181947.921 10 0 60206 35100.00000 0 9479705.980 -8103875.184 -22234995.106 10 0 60206 36000.00000 0 9945106.110 -5357089.220 -22855511.460 10 0 60206 36900.00000 0 10621075.022 -2604030.439 -23031482.253 10 0 60206 37800.00000 0 11493705.757 86756.998 -22759548.803 10 0 60206 38700.00000 0 12537339.448 2650289.072 -22045068.946 10 0 60206 39600.00000 0 13715586.262 5027606.468 -20902007.513 10 0 60206 40500.00000 0 14982815.890 7167981.307 -19352659.277 10 0 60206 41400.00000 0 16286054.903 9030775.158 -17427210.025 10 0 60206 42300.00000 0 17567211.046 10586872.124 -15163144.493 10 0 60206 43200.00000 0 18765530.894 11819628.682 -12604512.858 10 0 60206 44100.00000 0 19820187.395 12725302.232 -9801070.182 10 0 60206 45000.00000 0 20672888.325 13312942.211 -6807305.770 10 0 60206 45900.00000 0 21270395.851 13603750.103 -3681381.533 10 0 60206 46800.00000 0 21566851.129 13629937.022 -484000.223 10 0 60206 47700.00000 0 21525806.079 13433128.521 2722774.107 10 0 60206 48600.00000 0 21121876.904 13062385.201 5876720.315 10 0 60206 49500.00000 0 20341949.847 12571923.661 8916665.501 10 0 60206 50400.00000 0 19185888.506 12018634.685 11783667.980 10 0 60206 51300.00000 0 17666712.992 11459503.801 14422155.163 10 0 60206 52200.00000 0 15810243.198 10949043.104 16780994.622 10 0 60206 53100.00000 0 13654220.762 10536842.478 18814478.130 10 0 60206 54000.00000 0 11246945.858 10265343.075 20483200.343 10 0 60206 54900.00000 0 8645484.827 10167926.370 21754815.946 10 0 60206 55800.00000 0 5913522.328 10267398.857 22604661.382 10 0 60206 56700.00000 0 3118946.059 10574935.858 23016229.884 10 0 60206 57600.00000 0 331263.016 11089528.899 22981491.102 10 0 60206 58500.00000 0 -2381046.869 11797960.186 22501049.402 10 0 60206 59400.00000 0 -4953131.344 12675305.965 21584137.645 10 0 60206 60300.00000 0 -7326214.070 13685948.574 20248446.148 10 0 60206 61200.00000 0 -9449789.956 14785055.866 18519789.383 10 0 60206 62100.00000 0 -11283477.235 15920467.099 16431615.899 10 0 60206 63000.00000 0 -12798449.882 17034907.210 14024369.841 10 0 60206 63900.00000 0 -13978391.074 18068437.289 11344715.382 10 0 60206 64800.00000 0 -14819928.167 18961038.753 8444638.110 10 0 60206 65700.00000 0 -15332531.180 19655222.583 5380440.091 10 0 60206 66600.00000 0 -15537879.208 20098553.376 2211647.720 10 0 60206 67500.00000 0 -15468721.683 20245981.121 -1000146.455 10 0 60206 68400.00000 0 -15167282.815 20061881.256 -4192485.168 10 0 60206 69300.00000 0 -14683277.054 19521715.660 -7303267.077 10 0 60206 70200.00000 0 -14071620.103 18613243.072 -10271962.110 10 0 60206 71100.00000 0 -13389933.064 17337226.472 -13040796.939 10 0 60206 72000.00000 0 -12695946.192 15707606.256 -15555886.570 10 0 60206 72900.00000 0 -12044912.951 13751130.787 -17768289.260 10 0 60206 73800.00000 0 -11487144.598 11506458.801 -19634963.673 10 0 60206 74700.00000 0 -11065770.193 9022770.650 -21119609.225 10 0 60206 75600.00000 0 -10814817.211 6357945.949 -22193373.221 10 0 60206 76500.00000 0 -10757694.090 3576383.424 -22835411.129 10 0 60206 77400.00000 0 -10906138.876 746553.689 -23033289.370 10 0 60206 78300.00000 0 -11259678.243 -2061613.321 -22783223.185 10 0 60206 79200.00000 0 -11805619.482 -4779397.800 -22090145.407 10 0 60206 80100.00000 0 -12519575.544 -7341905.721 -20967605.167 10 0 60206 81000.00000 0 -13366500.675 -9690522.453 -19437498.904 10 0 60206 81900.00000 0 -14302192.710 -11775103.050 -17529639.143 10 0 60206 82800.00000 0 -15275198.407 -13555808.979 -15281169.650 10 0 60206 83700.00000 0 -16229041.261 -15004515.944 -12735838.534 10 0 60206 84600.00000 0 -17104677.662 -16105735.489 -9943143.530 10 0 60206 85500.00000 0 -17843077.616 -16857013.398 -6957366.331 10 0 60207 0.00000 0 -18387821.015 -17268789.868 -3836515.213 10 0 60207 900.00000 0 -18687600.089 -17363729.164 -641195.093 10 0 60207 1800.00000 0 -18698521.738 -17175548.086 2566568.537 10 0 60207 2700.00000 0 -18386113.608 -16747394.664 5724534.253 10 0 60207 3600.00000 0 -17726948.567 -16129845.989 8771450.239 10 0 60207 4500.00000 0 -16709819.430 -15378610.677 11648238.878 10 0 60207 5400.00000 0 -15336414.372 -14552033.312 14299137.332 10 0 60207 6300.00000 0 -13621464.347 -13708506.225 16672772.329 10 0 60207 7200.00000 0 -11592355.919 -12903897.513 18723148.889 10 0 60207 8100.00000 0 -9288225.032 -12189103.188 20410534.534 10 0 60207 9000.00000 0 -6758568.623 -11607825.897 21702222.719 10 0 60207 9900.00000 0 -4061430.857 -11194672.957 22573161.478 10 0 60207 10800.00000 0 -1261238.120 -10973653.091 23006435.877 10 0 60207 11700.00000 0 1573628.781 -10957134.571 22993595.441 10 0 60207 12600.00000 0 4373425.892 -11145308.378 22534820.478 10 0 60207 13500.00000 0 7069694.894 -11526179.077 21638923.978 10 0 60207 14400.00000 0 9597860.916 -12076084.259 20323188.638 10 0 60207 15300.00000 0 11899672.701 -12760721.452 18613041.425 10 0 60207 16200.00000 0 13925384.763 -13536640.243 16541570.999 10 0 60207 17100.00000 0 15635591.428 -14353137.799 14148896.259 10 0 60207 18000.00000 0 17002636.790 -15154478.835 11481397.156 10 0 60207 18900.00000 0 18011541.916 -15882347.109 8590821.712 10 0 60207 19800.00000 0 18660410.650 -16478425.372 5533285.833 10 0 60207 20700.00000 0 18960297.008 -16886994.766 2368184.927 10 0 60207 21600.00000 0 18934539.812 -17057443.365 -842961.568 10 0 60207 22500.00000 0 18617592.746 -16946577.000 -4037710.059 10 0 60207 23400.00000 0 18053399.452 -16520633.486 -7153913.086 10 0 60207 24300.00000 0 17293382.747 -15756913.755 -10130935.505 10 0 60207 25200.00000 0 16394133.491 -14644959.489 -12910842.005 10 0 60207 26100.00000 0 15414897.540 -13187226.072 -15439531.907 10 0 60207 27000.00000 0 14414967.738 -11399221.110 -17667798.360 10 0 60207 27900.00000 0 13451091.877 -9309101.411 -19552290.756 10 0 60207 28800.00000 0 12575006.718 -6956744.364 -21056361.199 10 0 60207 29700.00000 0 11831202.601 -4392331.790 -22150778.507 10 0 60207 30600.00000 0 11255013.099 -1674504.859 -22814295.915 10 0 60207 31500.00000 0 10871110.272 1131833.299 -23034061.752 10 0 60207 32400.00000 0 10692468.626 3957976.067 -22805865.482 10 0 60207 33300.00000 0 10719840.953 6734030.868 -22134214.756 10 0 60207 34200.00000 0 10941767.582 9391587.123 -21032242.394 10 0 60207 35100.00000 0 11335117.918 11866324.156 -19521445.467 10 0 60207 36000.00000 0 11866140.805 14100451.105 -17631261.794 10 0 60207 36900.00000 0 12491978.747 16044878.027 -15398492.362 10 0 60207 37800.00000 0 13162581.534 17661028.660 -12866581.022 10 0 60207 38700.00000 0 13822937.998 18922220.406 -10084765.652 10 0 60207 39600.00000 0 14415531.256 19814555.131 -7107117.487 10 0 60207 40500.00000 0 14882913.405 20337284.995 -3991487.510 10 0 60207 41400.00000 0 15170290.674 20502639.502 -798380.643 10 0 60207 42300.00000 0 15228009.642 20335122.515 2410220.082 10 0 60207 43200.00000 0 15013839.412 19870310.241 5572056.290 10 0 60207 44100.00000 0 14494953.334 19153201.937 8625800.448 10 0 60207 45000.00000 0 13649526.584 18236193.736 11512241.997 10 0 60207 45900.00000 0 12467882.155 17176761.537 14175430.560 10 0 60207 46800.00000 0 10953136.740 16034950.761 16563754.443 10 0 60207 47700.00000 0 9121318.932 14870778.549 18630933.997 10 0 60207 48600.00000 0 7000954.095 13741657.247 20336911.374 10 0 60207 49500.00000 0 4632132.302 12699946.846 21648620.229 10 0 60207 50400.00000 0 2065097.074 11790738.356 22540621.269 10 0 60207 51300.00000 0 -641587.679 11049960.344 22995592.108 10 0 60207 52200.00000 0 -3423217.859 10502887.299 23004662.463 10 0 60207 53100.00000 0 -6211387.548 10163111.804 22567588.462 10 0 60207 54000.00000 0 -8936585.943 10032023.319 21692762.647 10 0 60207 54900.00000 0 -11530846.590 10098815.367 20397059.033 10 0 60207 55800.00000 0 -13930340.246 10341021.107 18705515.535 10 0 60207 56700.00000 0 -16077804.656 10725555.222 16650858.947 10 0 60207 57600.00000 0 -17924710.992 11210218.945 14272880.560 10 0 60207 58500.00000 0 -19433077.064 11745605.472 11617673.444 10 0 60207 59400.00000 0 -20576851.863 12277325.964 8736745.203 10 0 60207 60300.00000 0 -21342813.510 12748462.506 5686022.625 10 0 60207 61200.00000 0 -21730942.830 13102144.374 2524767.159 10 0 60207 62100.00000 0 -21754256.741 13284138.322 -685577.805 10 0 60207 63000.00000 0 -21438108.388 13245342.576 -3882585.221 10 0 60207 63900.00000 0 -20818983.528 12944077.899 -7004064.272 10 0 60207 64800.00000 0 -19942844.180 12348077.517 -9989277.386 10 0 60207 65700.00000 0 -18863089.830 11436090.226 -12780129.755 10 0 60207 66600.00000 0 -17638222.798 10199027.422 -15322307.289 10 0 60207 67500.00000 0 -16329316.973 8640604.129 -17566340.053 10 0 60207 68400.00000 0 -14997397.360 6777445.604 -19468569.877 10 0 60207 69300.00000 0 -13700841.523 4638653.786 -20992002.933 10 0 60207 70200.00000 0 -12492912.837 2264850.750 -22107030.549 10 0 60207 71100.00000 0 -11419529.613 -293261.662 -22792004.366 10 0 60207 72000.00000 0 -10517363.897 -2976766.442 -23033654.885 10 0 60207 72900.00000 0 -9812349.562 -5720742.953 -22827345.689 10 0 60207 73800.00000 0 -9318661.828 -8456733.661 -22177158.799 10 0 60207 74700.00000 0 -9038210.278 -11115363.650 -21095809.932 10 0 60207 75600.00000 0 -8960665.771 -13629004.296 -19604395.673 10 0 60207 76500.00000 0 -9064019.026 -15934370.665 -17731977.742 10 0 60207 77400.00000 0 -9315646.337 -17974945.016 -15515012.692 10 0 60207 78300.00000 0 -9673836.484 -19703126.102 -12996638.278 10 0 60207 79200.00000 0 -10089713.535 -21082015.489 -10225830.545 10 0 60207 80100.00000 0 -10509473.572 -22086767.263 -7256448.207 10 0 60207 81000.00000 0 -10876840.239 -22705445.852 -4146183.132 10 0 60207 81900.00000 0 -11135634.811 -22939357.295 -955437.553 10 0 60207 82800.00000 0 -11232351.785 -22802841.376 2253849.845 10 0 60207 83700.00000 0 -11118630.859 -22322534.660 5419405.927 10 0 60207 84600.00000 0 -10753520.685 -21536136.536 8479829.685 10 0 60207 85500.00000 0 -10105438.636 -20490731.148 11375779.903 10 0 60208 0.00000 0 -9153743.914 -19240736.559 14051120.751 10 0 60208 900.00000 0 -7889856.855 -17845567.043 16454004.870 10 0 60208 1800.00000 0 -6317878.323 -16367108.464 18537869.920 10 0 60208 2700.00000 0 -4454680.862 -14867110.187 20262334.765 10 0 60208 3600.00000 0 -2329468.082 -13404603.971 21593975.159 10 0 60208 4500.00000 0 17180.884 -12033456.587 22506966.151 10 0 60208 5400.00000 0 2534743.342 -10800157.821 22983579.311 10 0 60208 6300.00000 0 5164603.344 -9741935.519 23014525.665 10 0 60208 7200.00000 0 7842245.084 -8885275.691 22599137.994 10 0 60208 8100.00000 0 10499699.919 -8244908.927 21745388.915 10 0 60208 9000.00000 0 13068147.014 -7823305.101 20469743.979 10 0 60208 9900.00000 0 15480560.945 -7610697.332 18796851.951 10 0 60208 10800.00000 0 17674297.368 -7585634.236 16759077.298 10 0 60208 11700.00000 0 19593510.000 -7716037.495 14395882.853 10 0 60208 12600.00000 0 21191298.616 -7960720.565 11753073.532 10 0 60208 13500.00000 0 22431498.607 -8271304.862 8881914.783 10 0 60208 14400.00000 0 23290037.159 -8594452.768 5838142.069 10 0 60208 15300.00000 0 23755798.923 -8874323.092 2680880.220 10 0 60208 16200.00000 0 23830964.524 -9055144.834 -528506.470 10 0 60208 17100.00000 0 23530807.321 -9083799.689 -3727610.832 10 0 60208 18000.00000 0 22882956.758 -8912302.991 -6854202.205 10 0 60208 18900.00000 0 21926159.273 -8500076.831 -9847444.132 10 0 60208 19800.00000 0 20708589.140 -7815917.725 -12649085.781 10 0 60208 20700.00000 0 19285780.780 -6839574.077 -15204602.963 10 0 60208 21600.00000 0 17718270.165 -5562865.249 -17464265.714 10 0 60208 22500.00000 0 16069045.210 -3990293.547 -19384111.093 10 0 60208 23400.00000 0 14400913.032 -2139121.967 -20926801.790 10 0 60208 24300.00000 0 12773895.232 -38913.258 -22062353.749 10 0 60208 25200.00000 0 11242760.864 2269451.406 -22768718.719 10 0 60208 26100.00000 0 9854800.699 4735233.860 -23032210.656 10 0 60208 27000.00000 0 8647935.850 7299720.033 -22847768.090 10 0 60208 27900.00000 0 7649239.475 9898442.725 -22219047.764 10 0 60208 28800.00000 0 6873932.698 12463653.723 -21158348.166 10 0 60208 29700.00000 0 6324895.742 14926942.630 -19686364.789 10 0 60208 30600.00000 0 5992713.509 17221893.648 -17831782.175 10 0 60208 31500.00000 0 5856252.336 19286669.939 -15630710.905 10 0 60208 32400.00000 0 5883742.296 21066418.291 -13125980.661 10 0 60208 33300.00000 0 6034318.131 22515394.340 -10366303.258 10 0 60208 34200.00000 0 6259952.686 23598720.221 -7405322.123 10 0 60208 35100.00000 0 6507700.207 24293702.035 -4300566.925 10 0 60208 36000.00000 0 6722153.896 24590652.917 -1112333.887 10 0 60208 36900.00000 0 6848013.230 24493188.245 2097486.107 10 0 60208 37800.00000 0 6832652.015 24017981.720 5266608.648 10 0 60208 38700.00000 0 6628578.323 23193993.545 8333562.669 10 0 60208 39600.00000 0 6195682.151 22061204.041 11238879.530 10 0 60208 40500.00000 0 5503175.743 20668906.536 13926241.408 10 0 60208 41400.00000 0 4531144.561 19073631.611 16343567.047 10 0 60208 42300.00000 0 3271643.261 17336789.856 18444014.324 10 0 60208 43200.00000 0 1729290.135 15522131.726 20186880.916 10 0 60208 44100.00000 0 -78665.708 13693130.294 21538386.439 10 0 60208 45000.00000 0 -2122808.233 11910395.627 22472321.700 10 0 60208 45900.00000 0 -4362531.359 10229227.896 22970553.261 10 0 60208 46800.00000 0 -6747489.606 8697410.333 23023374.096 10 0 60208 47700.00000 0 -9219463.744 7353333.208 22629693.825 10 0 60208 48600.00000 0 -11714565.529 6224526.197 21797064.843 10 0 60208 49500.00000 0 -14165691.543 5326659.663 20541543.434 10 0 60208 50400.00000 0 -16505125.535 4663056.095 18887387.881 10 0 60208 51300.00000 0 -18667182.279 4224731.789 16866598.495 10 0 60208 52200.00000 0 -20590783.772 3990966.890 14518307.365 10 0 60208 53100.00000 0 -22221860.848 3930379.871 11888028.582 10 0 60208 54000.00000 0 -23515480.164 4002461.296 9026782.477 10 0 60208 54900.00000 0 -24437607.392 4159502.262 5990110.040 10 0 60208 55800.00000 0 -24966432.363 4348835.982 2836996.252 10 0 60208 56700.00000 0 -25093199.999 4515297.475 -371276.937 10 0 60208 57600.00000 0 -24822511.512 4603796.661 -3572325.431 10 0 60208 58500.00000 0 -24172082.679 4561895.071 -6703881.821 10 0 60208 59400.00000 0 -23171968.967 4342275.922 -9705013.735 10 0 60208 60300.00000 0 -21863289.974 3905001.612 -12517317.118 10 0 60208 61200.00000 0 -20296506.948 3219461.658 -15086060.256 10 0 60208 62100.00000 0 -18529326.133 2265927.210 -17361255.458 10 0 60208 63000.00000 0 -16624316.507 1036644.985 -19298636.941 10 0 60208 63900.00000 0 -14646342.500 -463576.840 -20860525.429 10 0 60208 64800.00000 0 -12659919.878 -2217316.729 -22016562.520 10 0 60208 65700.00000 0 -10726605.917 -4195025.119 -22744300.611 10 0 60208 66600.00000 0 -8902533.326 -6356027.539 -23029637.161 10 0 60208 67500.00000 0 -7236190.916 -8650004.230 -22867085.223 10 0 60208 68400.00000 0 -5766543.351 -11018884.991 -22259875.420 10 0 60208 69300.00000 0 -4521567.839 -13399080.516 -21219887.789 10 0 60208 70200.00000 0 -3517267.858 -15723957.428 -19767415.201 10 0 60208 71100.00000 0 -2757203.841 -17926454.059 -17930763.235 10 0 60208 72000.00000 0 -2232558.996 -19941728.038 -15745694.532 10 0 60208 72900.00000 0 -1922735.845 -21709725.492 -13254728.606 10 0 60208 73800.00000 0 -1796456.819 -23177564.901 -10506310.896 10 0 60208 74700.00000 0 -1813321.030 -24301636.359 -7553867.384 10 0 60208 75600.00000 0 -1925750.265 -25049328.984 -4454763.417 10 0 60208 76500.00000 0 -2081240.854 -25400314.775 -1269187.149 10 0 60208 77400.00000 0 -2224825.388 -25347335.855 1941020.349 10 0 60208 78300.00000 0 -2301639.500 -24896462.896 5113565.354 10 0 60208 79200.00000 0 -2259484.735 -24066814.692 8186908.666 10 0 60208 80100.00000 0 -2051278.853 -22889751.362 11101456.146 10 0 60208 81000.00000 0 -1637289.881 -21407575.664 13800709.649 10 0 60208 81900.00000 0 -987059.479 -19671797.192 16232356.374 10 0 60208 82800.00000 0 -80934.361 -17741032.322 18349275.978 10 0 60208 83700.00000 0 1088858.983 -15678627.596 20110446.661 10 0 60208 84600.00000 0 2517641.983 -13550105.390 21481733.478 10 0 60208 85500.00000 0 4188238.860 -11420537.805 22436544.402 10 0 60209 0.00000 0 6071461.506 -9351957.527 22956342.176 10 0 60209 900.00000 0 8127106.475 -7400911.425 23031002.822 10 0 60209 1800.00000 0 10305421.508 -5616260.391 22659013.525 10 0 60209 2700.00000 0 12548985.451 -4037312.374 21847507.035 10 0 60209 3600.00000 0 14794922.502 -2692368.164 20612130.711 10 0 60209 4500.00000 0 16977361.058 -1597738.738 18976752.459 10 0 60209 5400.00000 0 19030035.933 -757274.742 16973008.256 10 0 60209 6300.00000 0 20888926.452 -162427.407 14639698.967 10 0 60209 7200.00000 0 22494820.961 207161.907 12022047.015 10 0 60209 8100.00000 0 23795700.800 382568.474 9170826.368 10 0 60209 9000.00000 0 24748843.847 404033.403 6141381.872 10 0 60209 9900.00000 0 25322558.948 319020.884 2992556.529 10 0 60209 10800.00000 0 25497477.787 179965.859 -214452.577 10 0 60209 11700.00000 0 25267349.069 41807.938 -3417287.303 10 0 60209 12600.00000 0 24639300.809 -40583.302 -6553646.616 10 0 60209 13500.00000 0 23633558.981 -14981.553 -9562505.495 10 0 60209 14400.00000 0 22282633.835 165734.617 -12385309.951 10 0 60209 15300.00000 0 20630007.823 541337.369 -14967123.954 10 0 60209 16200.00000 0 18728380.261 1142318.752 -17257705.143 10 0 60209 17100.00000 0 16637542.577 1988356.456 -19212487.764 10 0 60209 18000.00000 0 14421973.626 3087242.213 -20793453.205 10 0 60209 18900.00000 0 12148256.167 4434319.227 -21969871.100 10 0 60209 19800.00000 0 9882422.939 6012453.374 -22718896.594 10 0 60209 20700.00000 0 7687343.444 7792540.248 -23026012.420 10 0 60209 21600.00000 0 5620260.530 9734527.494 -22885307.555 10 0 60209 22500.00000 0 3730579.226 11788910.211 -22299587.469 10 0 60209 23400.00000 0 2057999.444 13898637.193 -21280314.252 10 0 60209 24300.00000 0 631069.495 16001348.668 -19847378.150 10 0 60209 25200.00000 0 -533780.480 18031852.189 -18028705.255 10 0 60209 26100.00000 0 -1432686.276 19924733.375 -15859709.226 10 0 60209 27000.00000 0 -2074261.556 21616992.505 -13382597.869 10 0 60209 27900.00000 0 -2478979.427 23050596.867 -10645548.223 10 0 60209 28800.00000 0 -2678051.386 24174842.248 -7701766.390 10 0 60209 29700.00000 0 -2711852.492 24948424.954 -4608450.579 10 0 60209 30600.00000 0 -2627960.591 25341137.919 -1425677.772 10 0 60209 31500.00000 0 -2478893.560 25335120.192 1784764.082 10 0 60209 32400.00000 0 -2319641.136 24925607.968 4960575.368 10 0 60209 33300.00000 0 -2205096.303 24121156.159 8040152.202 10 0 60209 34200.00000 0 -2187495.248 22943321.751 10963778.318 10 0 60209 35100.00000 0 -2313974.301 21425822.641 13674778.497 10 0 60209 36000.00000 0 -2624347.102 19613207.461 16120611.441 10 0 60209 36900.00000 0 -3149195.834 17559092.101 18253881.405 10 0 60209 37800.00000 0 -3908357.056 15324036.453 20033249.673 10 0 60209 38700.00000 0 -4909866.061 12973149.513 21424229.008 10 0 60209 39600.00000 0 -6149404.627 10573521.984 22399846.493 10 0 60209 40500.00000 0 -7610276.064 8191592.372 22941162.698 10 0 60209 41400.00000 0 -9263909.672 5890555.021 23037637.681 10 0 60209 42300.00000 0 -11070874.832 3727916.763 22687337.057 10 0 60209 43200.00000 0 -12982363.891 1753302.583 21896974.143 10 0 60209 44100.00000 0 -14942083.537 6600.472 20681787.043 10 0 60209 45000.00000 0 -16888477.293 -1483478.237 19065252.384 10 0 60209 45900.00000 0 -18757187.757 -2700363.833 17078640.350 10 0 60209 46800.00000 0 -20483656.921 -3640078.812 14760418.569 10 0 60209 47700.00000 0 -22005756.612 -4311155.660 12155515.318 10 0 60209 48600.00000 0 -23266339.343 -4734025.582 9314455.319 10 0 60209 49500.00000 0 -24215602.641 -4939904.164 6292384.087 10 0 60209 50400.00000 0 -24813167.210 -4969221.089 3147999.263 10 0 60209 51300.00000 0 -25029780.862 -4869660.585 -57590.434 10 0 60209 52200.00000 0 -24848575.649 -4693895.853 -3262056.338 10 0 60209 53100.00000 0 -24265824.223 -4497114.045 -6403067.290 10 0 60209 54000.00000 0 -23291162.612 -4334437.465 -9419509.024 10 0 60209 54900.00000 0 -21947269.130 -4258351.263 -12252680.869 10 0 60209 55800.00000 0 -20269012.279 -4316247.775 -14847445.523 10 0 60209 56700.00000 0 -18302103.045 -4548192.691 -17153308.714 10 0 60209 57600.00000 0 -16101307.968 -4985008.809 -19125407.071 10 0 60209 58500.00000 0 -13728297.972 -5646759.506 -20725384.542 10 0 60209 59400.00000 0 -11249223.148 -6541697.013 -21922140.126 10 0 60209 60300.00000 0 -8732115.086 -7665720.735 -22692432.453 10 0 60209 61200.00000 0 -6244225.359 -9002369.180 -23021329.654 10 0 60209 62100.00000 0 -3849411.146 -10523346.464 -22902496.172 10 0 60209 63000.00000 0 -1605676.705 -12189561.766 -22338311.356 10 0 60209 63900.00000 0 437027.393 -13952638.476 -21339817.929 10 0 60209 64800.00000 0 2238656.400 -15756830.034 -19926501.735 10 0 60209 65700.00000 0 3770498.857 -17541262.364 -18125907.333 10 0 60209 66600.00000 0 5016121.208 -19242409.067 -15973097.144 10 0 60209 67500.00000 0 5971791.763 -20796695.725 -13509964.871 10 0 60209 68400.00000 0 6646368.081 -22143124.261 -10784416.693 10 0 60209 69300.00000 0 7060654.298 -23225807.367 -7849436.328 10 0 60209 70200.00000 0 7246257.281 -23996306.805 -4762052.379 10 0 60209 71100.00000 0 7243991.356 -24415677.622 -1582228.225 10 0 60209 72000.00000 0 7101900.382 -24456132.674 1628303.642 10 0 60209 72900.00000 0 6872981.763 -24102257.836 4807239.957 10 0 60209 73800.00000 0 6612709.490 -23351727.205 7892914.263 10 0 60209 74700.00000 0 6376461.389 -22215488.546 10825490.156 10 0 60209 75600.00000 0 6216959.644 -20717411.449 13548117.178 10 0 60209 76500.00000 0 6181832.750 -18893413.002 16008027.223 10 0 60209 77400.00000 0 6311401.753 -16790097.518 18157550.657 10 0 60209 78300.00000 0 6636784.018 -14462966.843 19955033.166 10 0 60209 79200.00000 0 7178394.340 -11974275.347 21365636.336 10 0 60209 80100.00000 0 7944906.564 -9390618.232 22362007.271 10 0 60209 81000.00000 0 8932719.694 -6780352.485 22924805.031 10 0 60209 81900.00000 0 10125951.566 -4210956.530 23043074.297 10 0 60209 82800.00000 0 11496961.291 -1746437.034 22714459.341 10 0 60209 83700.00000 0 13007379.832 555110.708 21945254.174 10 0 60209 84600.00000 0 14609606.990 2643688.657 20750287.613 10 0 60209 85500.00000 0 16248713.659 4479238.392 19152644.801 99